Regional Weather Roundup
Issued by NWS Charleston, WV

Home | Current Version | Previous Version | Graphics & Text | Print | Product List | Glossary On
Versions: 1 2 3 4 5 6 7 8 9 10 11 12 13 14 15 16 17 18 19 20 21 22 23 24 25 26 27 28 29 30 31 32 33 34 35 36 37 38 39 40 41 42 43 44 45 46 47 48 49 50
000
ASUS41 KRLX 011110
RWRRLX
West Virginia Regional Weather Roundup
National Weather Service Charleston WV
Issued by National Weather Service Pittsburgh PA
700 AM EDT SAT OCT 01 2016

Note: "fair" indicates few or no clouds below 12,000 feet with no
significant weather and/or obstructions to visibility.

WVZ003-011200-
Northern Panhandle of West Virginia

CITY           SKY/WX    TMP DP  RH WIND       PRES   REMARKS
WHEELING       MOCLDY    57  54  89 E7        30.08F
$$

WVZ009-011200-
Northwest West Virginia

CITY           SKY/WX    TMP DP  RH WIND       PRES   REMARKS
PARKERSBURG    CLOUDY    59  58  96 VRB5      30.09S FOG
$$

WVZ006-011200-
Western West Virginia

CITY           SKY/WX    TMP DP  RH WIND       PRES   REMARKS
HUNTINGTON     FOG       51  50  96 E3        30.06R VSB 1/4
$$

WVZ015-011200-
West Central West Virginia

CITY           SKY/WX    TMP DP  RH WIND       PRES   REMARKS
CHARLESTON     FOG       56  55  97 CALM      30.06S VSB 1/4
$$

WVZ031-011200-
North Central West Virginia

CITY           SKY/WX    TMP DP  RH WIND       PRES   REMARKS
CLARKSBURG     PTCLDY    54  54 100 CALM      30.07F
MORGANTOWN     MOCLDY    62  54  74 SE8       30.10S
$$

WVZ035-042-011200-
South Central West Virginia

CITY           SKY/WX    TMP DP  RH WIND       PRES   REMARKS
BECKLEY        FOG       55  54  96 CALM      30.10S VSB 1/2
BLUEFIELD      FOG       52  51  97 CALM      30.11S VSB 1/4
$$

WVZ045-011200-
Greenbrier Valley of West Virginia

CITY           SKY/WX    TMP DP  RH WIND       PRES   REMARKS
LEWISBURG      FOG       53  52  99 CALM      30.10S VSB 1/2
$$

WVZ047-011200-
Northern Mountains of West Virginia

CITY           SKY/WX    TMP DP  RH WIND       PRES   REMARKS
ELKINS         FOG       54  52  93 CALM      30.11S VSB 1/2
$$

WVZ052-011200-
Eastern Panhandle of West Virginia

CITY           SKY/WX    TMP DP  RH WIND       PRES   REMARKS
MARTINSBURG    CLOUDY    57  56  96 N7        30.12F FOG
PETERSBURG     CLOUDY    58  58  99 CALM      30.14R FOG
$$




USA.gov is the U.S. government's official web portal to all federal, state and local government web resources and services.